Location: Lafig�re
(44.4503°N, 4.0357°E)
Time: 02:38:57
(UTC+00:00)

Transit 4A - Pass Details

Date: 25 January 2021
Orbit: 866 x 978 km, 66.8° (Epoch: 02 March)

Event Time Altitude Azimuth Distance (km) Brightness Sun altitude
Rises 19:33:54 0° 237° (WSW) 3,667 11.8 -30.3°
Reaches altitude 10° 19:36:39 10° 245° (WSW) 2,725 11.0 -30.8°
Maximum altitude 19:42:35 39° 313° (NW) 1,432 9.1 -31.8°
Enters shadow 19:45:00 29° 356° (N) 1,715 9.3 -32.3°
Drops below altitude 10° 19:48:30 10° 21° (NNE) 2,713 - -32.9°
Sets 19:51:15 0° 29° (NNE) 3,650 - -33.4°
